STARLINK-11290, 61000

Orbit data source: Space-Track

STARLINK-11290, 61000 is a payload satellite owned by SpaceX/Seattle (US) in LEO that was launched on Thu, 05 Sep 2024 UTC via an FALCON 9 launch vehicle from the Air Force Eastern Test Range (AFETR). Payload-class satellites include a variety of spacecraft equipped with specific instruments for various scientific and technological missions. These include communications satellites like Starlink; space stations such as the ISS; scientific satellites like the Hubble; Earth observation satellites from companies like Planet Labs, Umbra, and HawkEye 360; GPS; miniature CubeSats for education and research; and military/defense satellites.

Loading next visibility...
Identifier
61000, 2024-158L
Orbit
LEO
Last TLE update
11 hours ago
Origin
Manufacturer
SpaceX/Seattle
Mission
Operational Commercial Communications
Bus & Motor
STARLINK V2M, Unknown motor
Mass
730 kg wet, ~700 kg dry
Launch date (UTC)
2024-09-05 (10 months ago)
Launch vehicle
FALCON 9
Launch site
Air Force Eastern Test Range (AFETR)
Object type
Payload
Rocket body
Debris
Shape & HBR
Box + 2 Pan, 29 m
Radar Cross Section
36.964 m², Large (>1 m²)

Expand to show TLE details & history

TLE from 11 hours ago
0 STARLINK-11290
1 61000U 24158L   25189.89485855 -.00000211  00000-0  31096-5 0  9993
2 61000  53.1585  43.1054 0000500  82.3947 277.7128 15.69707278 49369
Epoch: 2025-07-08T21:28Z
TLE epoch observation values (Epoch: 2025-07-08T21:28:35.778Z)
Latitude
-0.00001°
Longitude
153.87303°
Altitude
360.604 km
Speed
7.694 km/s
True Right ascension
02h 52m 25s
True Declination
0° 00' 00"
Sunlit
Object was in daylight at epoch
Visualization orbit readout
Latitude
-9.98631°
Longitude
144.14811°
Altitude
362.515 km
Speed
7.692 km/s
Apparent Right ascension
04h 40m 22s
Apparent Declination
-32° 33' 42"
Sunlit
Object is in daylight
Visualization observer readout
Local Sidereal Time
20:16:49
Azimuth
97.986° ESE
Elevation
-46.408°
Doppler factor
1
Orbital elements
Apogee altitude
360.332 km
Perigee altitude
359.659 km
Semi-major axis
6,738.132 km
Eccentricity
0.00005
Inclination
53.1585°
RAAN
43.1054°
Arg. of periapsis
82.3947°
True anomaly
Unknown
Mean anomaly
277.7128°
Eccentric anomaly
Unknown
Mean motion
3.92404 °/min
Orbital period
91.74 mins
BSTAR
0.0000031096
Loading maneuver chart data...
Loading SW <> Apogee altitude chart data...
Loading historical data...
Loading historical data...
Loading historical data...
Loading historical data...
Loading historical data...
Loading historical data...
Loading historical data...

STARLINK-11290 Visibility forecast

Observer location: undefined°, undefined°

Span
Click to sort rows by Start time (UTC) header in descending order
Start Az.
Max El. time (UTC)
Max El. Az.
Max El.
End time (UTC)
End Az.
4 mins2025-07-09 23:58:12.868Z296.874° NW2025-07-10 00:00:12.868Z208.698° SW39.372°2025-07-10 00:02:12.868Z147.5° SSE
|